Regional Weather Roundup
Issued by NWS Boston, MA

Home | Current Version | Previous Version | Text Only | Print | Product List | Glossary On
Versions: 1 2 3 4 5 6 7 8 9 10 11 12 13 14 15 16 17 18 19 20 21 22 23 24 25 26 27
000
ASUS41 KBOX 280710
RWRBOX

REGIONAL WEATHER ROUNDUP
NATIONAL WEATHER SERVICE TAUNTON MA
200 AM EST TUE FEB 28 2017

NOTE:  "FAIR" INDICATES FEW OR NO CLOUDS BELOW 12,000 FEET WITH NO
SIGNIFICANT WEATHER AND/OR OBSTRUCTIONS TO VISIBILITY.

MAZALL-280800-
EASTERN MASSACHUSETTS

CITY           SKY/WX    TMP DP  RH WIND       PRES   REMARKS
BOSTON         CLEAR     39  32  76 SW12      30.38S WCI  32
BEVERLY        CLEAR     37  29  72 SW3       30.37S
LAWRENCE       CLEAR     37  27  67 S6        30.38R
BEDFORD        CLEAR     34  25  69 SW3       30.36S
BLUE HILL        N/A     36  30  79 S13       30.36R WCI  27
NORWOOD        CLEAR     31  29  92 CALM      30.39S
MARSHFIELD     CLEAR     39  36  87 VRB5      30.39S
PLYMOUTH       CLEAR     36  34  92 S3        30.40S
TAUNTON        CLEAR     32  29  88 CALM      30.40S
NEW BEDFORD    CLEAR     34  32  92 CALM      30.40S FOG
$$

MAZALL-280800-
CAPE COD AND THE ISLANDS

CITY           SKY/WX    TMP DP  RH WIND       PRES   REMARKS
FALMOUTH       PTCLDY    39  37  93 MISG      30.42S
HYANNIS        CLEAR     40  38  93 SW8       30.40S
CHATHAM        CLEAR     42  40  92 W8        30.42S
PROVINCETOWN   PTCLDY    40  38  93 SW10        N/A
NANTUCKET      PTCLDY    43  38  82 W9        30.42S
MARTHAS VNYRD    N/A    N/A N/A N/A MISG      30.41F
$$

MAZALL-280800-
CENTRAL AND WESTERN MASSACHUSETTS

CITY           SKY/WX    TMP DP  RH WIND       PRES   REMARKS
WORCESTER      MOCLDY    35  25  66 W7        30.35R WCI  29
FITCHBURG      CLEAR     32  26  78 CALM      30.37S
ORANGE         MOCLDY    26  24  92 CALM      30.37R
SPRINGFIELD    CLOUDY    33  29  84 CALM      30.36S
WESTFIELD      CLOUDY    39  30  70 SE5       30.37R
NORTH ADAMS    MOCLDY    27  22  81 CALM      30.36S
PITTSFIELD     CLOUDY    32  23  69 CALM      30.33R
$$

RIZALL-280800-
RHODE ISLAND

CITY           SKY/WX    TMP DP  RH WIND       PRES   REMARKS
PROVIDENCE     CLEAR     35  31  85 CALM      30.40S
NEWPORT        CLOUDY    41  38  89 CALM      30.40S
BLOCK ISLAND   CLOUDY    43  39  86 SW10      30.42S
SMITHFIELD     PTCLDY    33  31  92 CALM      30.39S
WESTERLY       CLOUDY    36  31  82 CALM      30.42S
$$

CTZALL-280800-
CONNECTICUT

CITY           SKY/WX    TMP DP  RH WIND       PRES   REMARKS
BRADLEY INTL   CLOUDY    38  33  82 S10       30.38S WCI  31
HARTFORD       CLOUDY    40  33  76 S6        30.39S
BRIDGEPORT     CLOUDY    42  36  79 CALM      30.39F
DANBURY        CLOUDY    34  29  82 CALM      30.39S
GROTON         CLOUDY    36  34  92 CALM      30.41S
NEW HAVEN      CLOUDY    41  36  82 CALM      30.39F
CHESTER        FAIR      39  36  87 SW3       30.39S
MERIDEN        CLOUDY    34  31  88 CALM      30.40S
WILLIMANTIC    CLOUDY    32  29  88 CALM      30.40F
OXFORD         CLOUDY    41  27  56 CALM      30.38F
$$

MEZ002-015-021-024-NHZ003-005-008-011-012-014-VTZ005-008-280800-
NORTHERN NEW ENGLAND

CITY           SKY/WX    TMP DP  RH WIND       PRES   REMARKS
PORTLAND ME    CLEAR     38  20  48 SW7       30.34R
BANGOR ME      PTCLDY    27  23  85 CALM      30.33R
CONCORD NH     CLEAR     27  22  81 SE3       30.34S
MANCHESTER NH  PTCLDY    36  22  56 S3        30.34S
NASHUA NH      CLEAR     30  26  85 CALM      30.37R
PORTSMOUTH NH  CLEAR     39  24  54 SW7       30.34R
JAFFREY NH     CLEAR     27  23  85 CALM      30.34S
KEENE NH       CLEAR     27  23  85 S3        30.36S
BURLINGTON VT  CLOUDY    32  26  78 CALM      30.33R
MT. WASHINGTON FOG       16  16 100 W63         N/A  VSB 0   WCI -11
$$

NYZ052-076-280800-
EASTERN NEW YORK

CITY           SKY/WX    TMP DP  RH WIND       PRES   REMARKS
ALBANY         CLOUDY    33  22  63 CALM      30.36R
NEW YORK CITY  CLOUDY    50  31  48 S3        30.37F
$$

ANZALL-280800-
MARINE OBSERVATIONS

STATION/POSITION TIME  TEMP    WIND        PRES    VSBY  WAVE
                       AIR SEA DIR/SP/G                  HT/PER
                 (UTC) (F)     (DEG/KT/KT) (MB)    (MI)  (FT/S)
BOSTON BUOY      0550   42 42  200/ 14/ 17 1027.6          2/ 3
BUZZARDS BAY     0600   42     230/ 13/ 13 1030.2R
NANTUCKET SOUND  0550   44 40  240/ 14/ 16 1029.8          2/ 3
MASS BAY-STELLWA 0604   42 42  220/ 14/ 16 1027.2R         2/ 3
ISLE OF SHOALS   0600   42     220/ 16/ 17 1027.4R
S OF BLOCK IS    0655      43                N/A           4/ 6
$$

......................KEY.........................
  SKY/WX - SKY CONDITION/PRESENT WEATHER
  TMP    - TEMPERATURE IN FAHRENHEIT
  DWPT   - DEWPOINT IN FAHRENHEIT
  RH     - RELATIVE HUMIDITY IN PERCENT
  WIND   - DIRECTION AND SPEED IN MPH
  PRES   - MEAN SEA LEVEL PRESSURE IN INCHES OF HG
  WCI    - WIND CHILL INDEX
  VSB    - VISIBILITY IN MILES
  HX     - HEAT INDEX
  TC     - TEMPERATURE IN CELSIUS
  VRB    - VARIABLE WIND DIRECTION
  N/A    - NOT AVAILABLE




USA.gov is the U.S. government's official web portal to all federal, state and local government web resources and services.